STAR ONE D1

Last updated on Wed Jul 02 2025 00:02:47 GMT+0000 (Coordinated Universal Time)

1 41904U 16082B 25182.55059523 -.00000207 00000+0 00000+0 0 9995 2 41904 0.0308 68.1781 0002278 22.0497 303.8388 1.00272822 31253
UTC large
Height (km)
Speed (km/s)
/
Latitude / Longitude
Inclination (degrees)
Orbital Period (minutes)
Azimuth
Elevation
Range (km)
Doppler Factor

Next 0 passes for location: London (51.5072 / 0.1276)

Sorry there are no passes over London.